Time,TemperatureF,DewpointF,PressureIn,WindDirection,WindDirectionDegrees,WindSpeedMPH,WindSpeedGustMPH,Humidity,HourlyPrecipIn,Conditions,Clouds,dailyrainin,SoftwareType,DateUTC
2013-10-27 00:00:00,32.4,26.0,30.08,SSW,212,7.0,9.0,77,0.00,,---,0.00,VWS V14.01,2013-10-27 05:00:00,
2013-10-27 00:10:00,33.1,26.4,30.08,SW,217,9.0,10.0,76,0.00,,---,0.00,VWS V14.01,2013-10-27 05:10:00,
2013-10-27 00:20:00,33.2,26.5,30.08,SW,221,8.0,10.0,76,0.00,,---,0.00,VWS V14.01,2013-10-27 05:20:00,
2013-10-27 00:30:00,32.5,25.8,30.08,SW,223,5.0,8.0,76,0.00,,---,0.00,VWS V14.01,2013-10-27 05:30:00,
2013-10-27 00:40:00,31.5,25.4,30.07,SW,215,5.0,7.0,78,0.00,,---,0.00,VWS V14.01,2013-10-27 05:40:00,
2013-10-27 00:50:00,30.7,25.0,30.06,SSW,207,6.0,8.0,79,0.00,,---,0.00,VWS V14.01,2013-10-27 05:50:00,
2013-10-27 01:00:00,30.7,25.3,30.06,SSW,207,8.0,9.0,80,0.00,,---,0.00,VWS V14.01,2013-10-27 06:00:00,
2013-10-27 01:10:00,30.9,25.2,30.05,SSW,213,8.0,10.0,79,0.00,,---,0.00,VWS V14.01,2013-10-27 06:10:00,
2013-10-27 01:20:00,30.6,25.2,30.05,SSW,213,7.0,10.0,80,0.00,,---,0.00,VWS V14.01,2013-10-27 06:20:00,
2013-10-27 01:30:00,29.9,24.8,30.05,SSW,211,7.0,10.0,81,0.00,,---,0.00,VWS V14.01,2013-10-27 06:30:00,
2013-10-27 01:40:00,29.9,24.8,30.05,SW,215,8.0,9.0,81,0.00,,---,0.00,VWS V14.01,2013-10-27 06:40:00,
2013-10-27 01:50:00,30.4,25.0,30.05,SW,217,7.0,10.0,80,0.00,,---,0.00,VWS V14.01,2013-10-27 06:50:00,
2013-10-27 02:00:00,29.9,24.8,30.04,SW,215,8.0,9.0,81,0.00,,---,0.00,VWS V14.01,2013-10-27 07:00:00,
2013-10-27 02:01:00,29.9,24.8,30.04,SW,215,8.0,9.0,81,0.00,,---,0.00,VWS V14.01,2013-10-27 07:01:00,
2013-10-27 02:10:00,29.6,24.8,30.04,SW,218,7.0,9.0,82,0.00,,---,0.00,VWS V14.01,2013-10-27 07:10:00,
2013-10-27 02:20:00,29.3,24.5,30.03,SW,217,9.0,9.0,82,0.00,,---,0.00,VWS V14.01,2013-10-27 07:20:00,
2013-10-27 02:30:00,29.7,24.9,30.03,SSW,212,7.0,9.0,82,0.00,,---,0.00,VWS V14.01,2013-10-27 07:30:00,
2013-10-27 02:40:00,29.6,24.8,30.03,SSW,213,7.0,9.0,82,0.00,,---,0.00,VWS V14.01,2013-10-27 07:40:00,
2013-10-27 02:50:00,29.5,24.7,30.02,SSW,213,7.0,8.0,82,0.00,,---,0.00,VWS V14.01,2013-10-27 07:50:00,
2013-10-27 03:00:00,29.0,24.2,30.02,SSW,203,7.0,7.0,82,0.00,,---,0.00,VWS V14.01,2013-10-27 08:00:00,
2013-10-27 03:10:00,28.7,23.9,30.01,SSW,209,6.0,8.0,82,0.00,,---,0.00,VWS V14.01,2013-10-27 08:10:00,
2013-10-27 03:20:00,28.2,23.7,30.01,SSW,205,7.0,8.0,83,0.00,,---,0.00,VWS V14.01,2013-10-27 08:20:00,
2013-10-27 03:30:00,28.4,23.9,30.01,SSW,208,8.0,11.0,83,0.00,,---,0.00,VWS V14.01,2013-10-27 08:30:00,
2013-10-27 03:40:00,28.3,23.8,30.01,SSW,213,7.0,11.0,83,0.00,,---,0.00,VWS V14.01,2013-10-27 08:40:00,
2013-10-27 03:50:00,28.6,24.1,30.00,SSW,212,8.0,10.0,83,0.00,,---,0.00,VWS V14.01,2013-10-27 08:50:00,
2013-10-27 04:00:00,28.5,24.0,30.00,SSW,213,7.0,10.0,83,0.00,,---,0.00,VWS V14.01,2013-10-27 09:00:00,
2013-10-27 04:10:00,28.6,24.1,29.99,SW,219,4.0,8.0,83,0.00,,---,0.00,VWS V14.01,2013-10-27 09:10:00,
2013-10-27 04:20:00,28.5,24.0,29.99,SSW,207,7.0,9.0,83,0.00,,---,0.00,VWS V14.01,2013-10-27 09:20:00,
2013-10-27 04:30:00,28.4,23.9,29.98,SSW,194,7.0,9.0,83,0.00,,---,0.00,VWS V14.01,2013-10-27 09:30:00,
2013-10-27 04:40:00,28.9,24.4,29.98,SSW,197,6.0,9.0,83,0.00,,---,0.00,VWS V14.01,2013-10-27 09:40:00,
2013-10-27 04:50:00,29.0,24.5,29.98,South,191,6.0,8.0,83,0.00,,---,0.00,VWS V14.01,2013-10-27 09:50:00,
2013-10-27 05:00:00,29.1,24.6,29.97,SSW,198,7.0,8.0,83,0.00,,---,0.00,VWS V14.01,2013-10-27 10:00:00,
2013-10-27 05:10:00,29.1,24.6,29.97,SSW,200,7.0,9.0,83,0.00,,---,0.00,VWS V14.01,2013-10-27 10:10:00,
2013-10-27 05:20:00,29.3,24.8,29.96,South,186,5.0,9.0,83,0.00,,---,0.00,VWS V14.01,2013-10-27 10:20:00,
2013-10-27 05:30:00,29.5,25.0,29.96,SSW,205,6.0,9.0,83,0.00,,---,0.00,VWS V14.01,2013-10-27 10:30:00,
2013-10-27 05:40:00,29.5,24.7,29.96,SW,214,9.0,10.0,82,0.00,,---,0.00,VWS V14.01,2013-10-27 10:40:00,
2013-10-27 05:50:00,29.4,24.6,29.96,SSW,205,7.0,9.0,82,0.00,,---,0.00,VWS V14.01,2013-10-27 10:50:00,
2013-10-27 06:00:00,29.4,24.6,29.95,SSW,192,6.0,7.0,82,0.00,,---,0.00,VWS V14.01,2013-10-27 11:00:00,
2013-10-27 06:10:00,29.2,24.4,29.95,SSW,202,6.0,9.0,82,0.00,,---,0.00,VWS V14.01,2013-10-27 11:10:00,
2013-10-27 06:20:00,29.7,25.2,29.95,SSW,195,6.0,10.0,83,0.00,,---,0.00,VWS V14.01,2013-10-27 11:20:00,
2013-10-27 06:30:00,30.3,25.8,29.94,SSW,194,10.0,12.0,83,0.00,,---,0.00,VWS V14.01,2013-10-27 11:30:00,
2013-10-27 06:40:00,30.7,25.9,29.94,SSW,195,7.0,12.0,82,0.00,,---,0.00,VWS V14.01,2013-10-27 11:40:00,
2013-10-27 06:50:00,30.6,25.8,29.93,SSW,196,9.0,11.0,82,0.00,,---,0.00,VWS V14.01,2013-10-27 11:50:00,
2013-10-27 07:00:00,30.7,25.9,29.93,SSW,200,7.0,11.0,82,0.00,,---,0.00,VWS V14.01,2013-10-27 12:00:00,
2013-10-27 07:10:00,30.7,25.6,29.92,South,190,6.0,10.0,81,0.00,,---,0.00,VWS V14.01,2013-10-27 12:10:00,
2013-10-27 07:20:00,30.8,26.0,29.92,South,188,7.0,10.0,82,0.00,,---,0.00,VWS V14.01,2013-10-27 12:20:00,
2013-10-27 07:30:00,31.0,25.9,29.91,SSW,204,7.0,9.0,81,0.00,,---,0.00,VWS V14.01,2013-10-27 12:30:00,
2013-10-27 07:40:00,31.0,25.9,29.91,SSW,198,10.0,12.0,81,0.00,,---,0.00,VWS V14.01,2013-10-27 12:40:00,
2013-10-27 07:50:00,30.8,25.7,29.90,SSW,194,7.0,12.0,81,0.00,,---,0.00,VWS V14.01,2013-10-27 12:50:00,
2013-10-27 08:00:00,31.0,25.9,29.90,South,187,10.0,13.0,81,0.00,,---,0.00,VWS V14.01,2013-10-27 13:00:00,
2013-10-27 08:10:00,31.3,26.2,29.90,SSW,194,7.0,13.0,81,0.00,,---,0.00,VWS V14.01,2013-10-27 13:10:00,
2013-10-27 08:20:00,31.8,26.6,29.90,South,188,15.0,15.0,81,0.00,,---,0.00,VWS V14.01,2013-10-27 13:20:00,
2013-10-27 08:30:00,32.3,26.8,29.90,South,188,11.0,15.0,80,0.00,,---,0.00,VWS V14.01,2013-10-27 13:30:00,
2013-10-27 08:40:00,32.8,27.3,29.90,South,185,10.0,15.0,80,0.00,,---,0.00,VWS V14.01,2013-10-27 13:40:00,
2013-10-27 08:50:00,33.4,27.6,29.89,South,184,9.0,15.0,79,0.00,,---,0.00,VWS V14.01,2013-10-27 13:50:00,
2013-10-27 09:00:00,34.1,28.0,29.89,SSW,192,13.0,16.0,78,0.00,,---,0.00,VWS V14.01,2013-10-27 14:00:00,
2013-10-27 09:10:00,34.6,28.5,29.89,SSW,197,14.0,17.0,78,0.00,,---,0.00,VWS V14.01,2013-10-27 14:10:00,
2013-10-27 09:20:00,35.3,28.8,29.89,SSW,194,10.0,17.0,77,0.00,,---,0.00,VWS V14.01,2013-10-27 14:20:00,
2013-10-27 09:30:00,36.1,29.0,29.89,South,181,8.0,20.0,75,0.00,,---,0.00,VWS V14.01,2013-10-27 14:30:00,
2013-10-27 09:40:00,36.9,29.4,29.88,SSW,195,13.0,19.0,74,0.00,,---,0.00,VWS V14.01,2013-10-27 14:40:00,
2013-10-27 09:50:00,37.7,29.8,29.88,South,186,15.0,18.0,73,0.00,,---,0.00,VWS V14.01,2013-10-27 14:50:00,
2013-10-27 10:00:00,38.8,30.6,29.88,SSW,194,14.0,18.0,72,0.00,,---,0.00,VWS V14.01,2013-10-27 15:00:00,
2013-10-27 10:10:00,39.7,30.7,29.87,SSE,149,12.0,19.0,70,0.00,,---,0.00,VWS V14.01,2013-10-27 15:10:00,
2013-10-27 10:20:00,40.2,30.9,29.87,SSW,194,12.0,19.0,69,0.00,,---,0.00,VWS V14.01,2013-10-27 15:20:00,
2013-10-27 10:30:00,41.3,31.5,29.87,SSW,208,12.0,19.0,68,0.00,,---,0.00,VWS V14.01,2013-10-27 15:30:00,
2013-10-27 10:40:00,41.9,31.4,29.87,SSW,195,13.0,18.0,66,0.00,,---,0.00,VWS V14.01,2013-10-27 15:40:00,
2013-10-27 10:50:00,43.3,32.3,29.86,SSW,200,13.0,19.0,65,0.00,,---,0.00,VWS V14.01,2013-10-27 15:50:00,
2013-10-27 11:00:00,44.4,32.6,29.87,South,185,13.0,17.0,63,0.00,,---,0.00,VWS V14.01,2013-10-27 16:00:00,
2013-10-27 11:10:00,45.1,33.3,29.87,South,180,8.0,15.0,63,0.00,,---,0.00,VWS V14.01,2013-10-27 16:10:00,
2013-10-27 11:20:00,46.7,33.6,29.86,South,178,12.0,18.0,60,0.00,,---,0.00,VWS V14.01,2013-10-27 16:20:00,
2013-10-27 11:30:00,47.5,33.9,29.86,SSW,210,8.0,17.0,59,0.00,,---,0.00,VWS V14.01,2013-10-27 16:30:00,
2013-10-27 11:40:00,48.0,33.5,29.86,SSW,195,11.0,18.0,57,0.00,,---,0.00,VWS V14.01,2013-10-27 16:40:00,
2013-10-27 11:50:00,49.0,34.0,29.86,South,171,11.0,18.0,56,0.00,,---,0.00,VWS V14.01,2013-10-27 16:50:00,
2013-10-27 12:00:00,48.8,34.3,29.86,South,191,13.0,19.0,57,0.00,,---,0.00,VWS V14.01,2013-10-27 17:00:00,
2013-10-27 12:10:00,49.5,34.5,29.85,SSW,204,13.0,18.0,56,0.00,,---,0.00,VWS V14.01,2013-10-27 17:10:00,
2013-10-27 12:20:00,50.5,35.4,29.85,SW,234,12.0,17.0,56,0.00,,---,0.00,VWS V14.01,2013-10-27 17:20:00,
2013-10-27 12:30:00,51.5,35.9,29.84,SSW,213,15.0,17.0,55,0.00,,---,0.00,VWS V14.01,2013-10-27 17:30:00,
2013-10-27 12:40:00,51.6,35.5,29.84,SW,215,12.0,18.0,54,0.00,,---,0.00,VWS V14.01,2013-10-27 17:40:00,
2013-10-27 12:50:00,52.8,36.2,29.84,SSW,197,14.0,17.0,53,0.00,,---,0.00,VWS V14.01,2013-10-27 17:50:00,
2013-10-27 13:00:00,54.3,36.6,29.83,SSW,202,10.0,18.0,51,0.00,,---,0.00,VWS V14.01,2013-10-27 18:00:00,
2013-10-27 13:10:00,54.7,35.9,29.83,SSW,193,11.0,17.0,49,0.00,,---,0.00,VWS V14.01,2013-10-27 18:10:00,
2013-10-27 13:20:00,55.6,36.8,29.83,SSW,213,12.0,14.0,49,0.00,,---,0.00,VWS V14.01,2013-10-27 18:20:00,
2013-10-27 13:30:00,56.5,37.6,29.82,SW,221,11.0,16.0,49,0.00,,---,0.00,VWS V14.01,2013-10-27 18:30:00,
2013-10-27 13:40:00,57.7,37.6,29.82,WSW,238,10.0,14.0,47,0.00,,---,0.00,VWS V14.01,2013-10-27 18:40:00,
2013-10-27 13:50:00,58.2,37.5,29.82,WSW,256,5.0,15.0,46,0.00,,---,0.00,VWS V14.01,2013-10-27 18:50:00,
2013-10-27 14:00:00,58.9,38.2,29.81,WSW,238,5.0,14.0,46,0.00,,---,0.00,VWS V14.01,2013-10-27 19:00:00,
2013-10-27 14:01:00,58.9,38.2,29.81,WSW,238,5.0,14.0,46,0.00,,---,0.00,VWS V14.01,2013-10-27 19:01:00,
2013-10-27 14:10:00,59.5,38.2,29.81,SW,221,9.0,13.0,45,0.00,,---,0.00,VWS V14.01,2013-10-27 19:10:00,
2013-10-27 14:20:00,60.7,38.7,29.81,WSW,240,7.0,15.0,44,0.00,,---,0.00,VWS V14.01,2013-10-27 19:20:00,
2013-10-27 14:30:00,60.9,38.3,29.80,SW,229,4.0,13.0,43,0.00,,---,0.00,VWS V14.01,2013-10-27 19:30:00,
2013-10-27 14:40:00,61.1,38.5,29.80,WSW,243,12.0,16.0,43,0.00,,---,0.00,VWS V14.01,2013-10-27 19:40:00,
2013-10-27 14:50:00,61.8,39.1,29.80,WSW,242,6.0,13.0,43,0.00,,---,0.00,VWS V14.01,2013-10-27 19:50:00,
2013-10-27 15:00:00,62.7,39.3,29.80,WSW,244,9.0,13.0,42,0.00,,---,0.00,VWS V14.01,2013-10-27 20:00:00,
2013-10-27 15:10:00,62.7,39.3,29.79,WSW,242,8.0,14.0,42,0.00,,---,0.00,VWS V14.01,2013-10-27 20:10:00,
2013-10-27 15:20:00,63.5,39.4,29.79,WSW,257,7.0,14.0,41,0.00,,---,0.00,VWS V14.01,2013-10-27 20:20:00,
2013-10-27 15:30:00,64.0,39.2,29.79,WSW,243,4.0,13.0,40,0.00,,---,0.00,VWS V14.01,2013-10-27 20:30:00,
2013-10-27 15:40:00,64.3,39.5,29.80,SW,227,3.0,12.0,40,0.00,,---,0.00,VWS V14.01,2013-10-27 20:40:00,
2013-10-27 15:50:00,64.7,39.8,29.80,SW,218,7.0,15.0,40,0.00,,---,0.00,VWS V14.01,2013-10-27 20:50:00,
2013-10-27 16:00:00,65.4,39.8,29.80,WSW,257,7.0,10.0,39,0.00,,---,0.00,VWS V14.01,2013-10-27 21:00:00,
2013-10-27 16:10:00,65.5,39.9,29.80,WSW,247,6.0,11.0,39,0.00,,---,0.00,VWS V14.01,2013-10-27 21:10:00,
2013-10-27 16:20:00,65.6,40.0,29.80,WSW,252,8.0,10.0,39,0.00,,---,0.00,VWS V14.01,2013-10-27 21:20:00,
2013-10-27 16:30:00,66.0,40.4,29.81,WSW,252,6.0,10.0,39,0.00,,---,0.00,VWS V14.01,2013-10-27 21:30:00,
2013-10-27 16:40:00,66.2,39.9,29.81,WSW,250,5.0,8.0,38,0.00,,---,0.00,VWS V14.01,2013-10-27 21:40:00,
2013-10-27 16:50:00,66.4,40.0,29.81,WSW,245,5.0,9.0,38,0.00,,---,0.00,VWS V14.01,2013-10-27 21:50:00,
2013-10-27 17:00:00,65.9,38.9,29.81,West,273,5.0,12.0,37,0.00,,---,0.00,VWS V14.01,2013-10-27 22:00:00,
2013-10-27 17:10:00,65.6,39.3,29.81,West,269,5.0,8.0,38,0.00,,---,0.00,VWS V14.01,2013-10-27 22:10:00,
2013-10-27 17:20:00,65.2,39.0,29.82,West,273,4.0,8.0,38,0.00,,---,0.00,VWS V14.01,2013-10-27 22:20:00,
2013-10-27 17:30:00,65.1,39.5,29.82,West,277,4.0,6.0,39,0.00,,---,0.00,VWS V14.01,2013-10-27 22:30:00,
2013-10-27 17:40:00,64.7,39.2,29.82,WNW,296,6.0,6.0,39,0.00,,---,0.00,VWS V14.01,2013-10-27 22:40:00,
2013-10-27 17:50:00,64.2,39.4,29.82,NW,305,2.0,6.0,40,0.00,,---,0.00,VWS V14.01,2013-10-27 22:50:00,
2013-10-27 18:00:00,62.9,39.5,29.83,NNW,335,5.0,7.0,42,0.00,,---,0.00,VWS V14.01,2013-10-27 23:00:00,
2013-10-27 18:10:00,61.2,39.7,29.84,North,350,2.0,6.0,45,0.00,,---,0.00,VWS V14.01,2013-10-27 23:10:00,
2013-10-27 18:20:00,59.5,39.3,29.84,North,355,6.0,6.0,47,0.00,,---,0.00,VWS V14.01,2013-10-27 23:20:00,
2013-10-27 18:30:00,58.4,38.8,29.85,North,350,10.0,14.0,48,0.00,,---,0.00,VWS V14.01,2013-10-27 23:30:00,
2013-10-27 18:40:00,56.2,38.8,29.86,North,360,8.0,12.0,52,0.00,,---,0.00,VWS V14.01,2013-10-27 23:40:00,
2013-10-27 18:50:00,55.2,38.9,29.86,NE,35,12.0,13.0,54,0.00,,---,0.00,VWS V14.01,2013-10-27 23:50:00,
2013-10-27 19:00:00,54.9,39.0,29.86,NNE,24,7.0,13.0,55,0.00,,---,0.00,VWS V14.01,2013-10-28 00:00:00,
2013-10-27 19:10:00,53.8,38.5,29.87,North,11,6.0,12.0,56,0.00,,---,0.00,VWS V14.01,2013-10-28 00:10:00,
2013-10-27 19:20:00,52.6,38.3,29.88,North,11,8.0,11.0,58,0.00,,---,0.00,VWS V14.01,2013-10-28 00:20:00,
2013-10-27 19:30:00,51.7,37.8,29.88,NNE,32,10.0,12.0,59,0.00,,---,0.00,VWS V14.01,2013-10-28 00:30:00,
2013-10-27 19:40:00,51.4,38.0,29.89,NNE,18,9.0,13.0,60,0.00,,---,0.00,VWS V14.01,2013-10-28 00:40:00,
2013-10-27 19:50:00,51.0,37.6,29.89,NNE,32,9.0,14.0,60,0.00,,---,0.00,VWS V14.01,2013-10-28 00:50:00,
2013-10-27 20:00:00,50.9,37.5,29.90,NNE,19,13.0,16.0,60,0.00,,---,0.00,VWS V14.01,2013-10-28 01:00:00,
2013-10-27 20:10:00,50.7,36.9,29.91,NNE,25,15.0,22.0,59,0.00,,---,0.00,VWS V14.01,2013-10-28 01:10:00,
2013-10-27 20:20:00,50.3,36.5,29.92,NNE,21,16.0,21.0,59,0.00,,---,0.00,VWS V14.01,2013-10-28 01:20:00,
2013-10-27 20:30:00,49.4,36.1,29.92,NNE,24,15.0,21.0,60,0.00,,---,0.00,VWS V14.01,2013-10-28 01:30:00,
2013-10-27 20:40:00,49.1,36.2,29.92,NNE,30,14.0,21.0,61,0.00,,---,0.00,VWS V14.01,2013-10-28 01:40:00,
2013-10-27 20:50:00,48.8,36.0,29.93,NNE,33,13.0,20.0,61,0.00,,---,0.00,VWS V14.01,2013-10-28 01:50:00,
2013-10-27 21:00:00,48.5,36.1,29.94,NNE,32,12.0,20.0,62,0.00,,---,0.00,VWS V14.01,2013-10-28 02:00:00,
2013-10-27 21:10:00,47.6,36.0,29.94,NE,36,15.0,18.0,64,0.00,,---,0.00,VWS V14.01,2013-10-28 02:10:00,
2013-10-27 21:20:00,46.8,35.7,29.95,NNE,26,11.0,16.0,65,0.00,,---,0.00,VWS V14.01,2013-10-28 02:20:00,
2013-10-27 21:30:00,46.0,35.7,29.95,NNE,31,13.0,15.0,67,0.00,,---,0.00,VWS V14.01,2013-10-28 02:30:00,
2013-10-27 21:40:00,45.6,35.7,29.96,NE,34,13.0,17.0,68,0.00,,---,0.00,VWS V14.01,2013-10-28 02:40:00,
2013-10-27 21:50:00,45.2,35.3,29.96,NNE,26,10.0,16.0,68,0.00,,---,0.00,VWS V14.01,2013-10-28 02:50:00,
2013-10-27 22:00:00,44.7,35.2,29.96,NNE,32,10.0,15.0,69,0.00,,---,0.00,VWS V14.01,2013-10-28 03:00:00,
2013-10-27 22:10:00,44.5,35.3,29.97,NNE,33,12.0,16.0,70,0.00,,---,0.00,VWS V14.01,2013-10-28 03:10:00,
2013-10-27 22:20:00,44.4,35.2,29.97,NNE,22,14.0,17.0,70,0.00,,---,0.00,VWS V14.01,2013-10-28 03:20:00,
2013-10-27 22:30:00,43.9,35.1,29.98,NNE,22,14.0,16.0,71,0.00,,---,0.00,VWS V14.01,2013-10-28 03:30:00,
2013-10-27 22:40:00,43.8,35.0,29.98,NNE,25,14.0,16.0,71,0.00,,---,0.00,VWS V14.01,2013-10-28 03:40:00,
2013-10-27 22:50:00,43.0,34.6,29.98,NNE,22,13.0,16.0,72,0.00,,---,0.00,VWS V14.01,2013-10-28 03:50:00,
2013-10-27 23:00:00,42.4,34.4,29.99,NE,35,9.0,15.0,73,0.00,,---,0.00,VWS V14.01,2013-10-28 04:00:00,
2013-10-27 23:10:00,41.8,34.1,29.99,NE,36,10.0,14.0,74,0.00,,---,0.00,VWS V14.01,2013-10-28 04:10:00,
2013-10-27 23:20:00,41.6,33.9,30.00,NNE,32,9.0,14.0,74,0.00,,---,0.00,VWS V14.01,2013-10-28 04:20:00,
2013-10-27 23:30:00,41.0,33.7,30.00,NNE,30,11.0,12.0,75,0.00,,---,0.00,VWS V14.01,2013-10-28 04:30:00,
2013-10-27 23:40:00,40.6,33.6,30.00,NE,38,11.0,12.0,76,0.00,,---,0.00,VWS V14.01,2013-10-28 04:40:00,
2013-10-27 23:50:00,40.8,33.8,30.01,NE,44,11.0,13.0,76,0.00,,---,0.00,VWS V14.01,2013-10-28 04:50:00,